Location: Cussy
(47.0410°N, 4.6412°E)
Time: 20:04:27
(UTC+00:00)

CENTAUR R/B - Pass Details

Date: 30 November 2020
Orbit: 750 x 1438 km, 63.4° (Epoch: 11 January)

Event Time Altitude Azimuth Distance (km) Brightness Sun altitude
Rises 18:47:23 0° 205° (SSW) 3,374 5.7 -28.7°
Reaches altitude 10° 18:49:41 10° 202° (SSW) 2,513 4.9 -29.1°
Enters shadow 18:53:41 45° 181° (S) 1,256 3.0 -29.8°
